| time (UTC) | temp C | wind direction | speed KPH | gust KPH | rain 1hr cm | rain 24hr cm | rain mn cm | humidity % | barometer mb |
| 20260504234559 | 12 | 346 | 27.4 | 43.5 | 0.00 | 0.00 | 0.00 | 24 | 1014.6 |
| 20260504233108 | 12 | 348 | 27.4 | 48.3 | 0.00 | 0.00 | 0.00 | 24 | 1014.7 |
| 20260504231601 | 12 | 317 | 27.4 | 38.6 | 0.00 | 0.00 | 0.00 | 23 | 1014.6 |
| 20260504230055 | 12 | 323 | 30.6 | 46.7 | 0.00 | 0.00 | 0.00 | 25 | 1014.7 |
| 20260504224558 | 13 | 318 | 29.0 | 45.1 | 0.00 | 0.00 | 0.00 | 27 | 1014.5 |
| 20260504223127 | 12 | 340 | 24.1 | 45.1 | 0.00 | 0.00 | 0.00 | 30 | 1014.5 |
| 20260504221556 | 12 | 319 | 25.7 | 37.0 | 0.00 | 0.00 | 0.00 | 30 | 1014.5 |
| 20260504220057 | 11 | 323 | 24.1 | 43.5 | 0.00 | 0.00 | 0.00 | 31 | 1014.6 |
| 20260504214555 | 11 | 330 | 32.2 | 43.5 | 0.00 | 0.00 | 0.00 | 32 | 1014.7 |
| 20260504213102 | 11 | 337 | 27.4 | 43.5 | 0.00 | 0.00 | 0.00 | 32 | 1014.8 |
| 20260504211548 | 12 | 11 | 25.7 | 43.5 | 0.00 | 0.00 | 0.00 | 33 | 1014.9 |
| 20260504210056 | 11 | 330 | 33.8 | 53.1 | 0.00 | 0.00 | 0.00 | 33 | 1014.9 |
| 20260504204554 | 12 | 360 | 32.2 | 48.3 | 0.00 | 0.00 | 0.00 | 32 | 1014.8 |
| 20260504203108 | 12 | 352 | 32.2 | 41.8 | 0.00 | 0.00 | 0.00 | 31 | 1014.6 |
| 20260504201559 | 12 | 342 | 30.6 | 46.7 | 0.00 | 0.00 | 0.00 | 32 | 1014.6 |
| 20260504200056 | 12 | 324 | 30.6 | 51.5 | 0.00 | 0.00 | 0.00 | 34 | 1014.6 |
| 20260504194550 | 11 | 336 | 22.5 | 43.5 | 0.00 | 0.00 | 0.00 | 35 | 1014.5 |
| 20260504193104 | 11 | 329 | 25.7 | 38.6 | 0.00 | 0.00 | 0.00 | 35 | 1014.7 |
| 20260504191559 | 12 | 338 | 30.6 | 43.5 | 0.00 | 0.00 | 0.00 | 34 | 1014.8 |
| 20260504190053 | 12 | 322 | 25.7 | 45.1 | 0.00 | 0.00 | 0.00 | 35 | 1014.8 |
| 20260504184558 | 11 | 339 | 22.5 | 37.0 | 0.00 | 0.00 | 0.00 | 36 | 1014.7 |
| 20260504183053 | 12 | 319 | 22.5 | 33.8 | 0.00 | 0.00 | 0.00 | 35 | 1014.7 |
| 20260504181600 | 12 | 352 | 27.4 | 41.8 | 0.00 | 0.00 | 0.00 | 36 | 1014.7 |
| 20260504180054 | 12 | 344 | 22.5 | 37.0 | 0.00 | 0.00 | 0.00 | 36 | 1014.8 |
| 20260504174549 | 11 | 311 | 27.4 | 40.2 | 0.00 | 0.00 | 0.00 | 38 | 1014.9 |
| 20260504173052 | 11 | 309 | 22.5 | 37.0 | 0.00 | 0.00 | 0.00 | 41 | 1015.0 |
| 20260504171555 | 11 | 329 | 19.3 | 35.4 | 0.00 | 0.00 | 0.00 | 41 | 1014.9 |
| 20260504081551 | 8 | 32 | 25.7 | 40.2 | 0.00 | 0.00 | 0.00 | 54 | 1014.6 |
| 20260504044604 | 13 | 37 | 29.0 | 37.0 | 0.00 | 0.00 | 0.00 | 38 | 1009.3 |
| 20260504043056 | 13 | 39 | 22.5 | 29.0 | 0.00 | 0.00 | 0.00 | 37 | 1009.0 |
| 20260504041552 | 14 | 38 | 19.3 | 30.6 | 0.00 | 0.00 | 0.00 | 36 | 1008.9 |
| 20260504040105 | 14 | 42 | 19.3 | 32.2 | 0.00 | 0.00 | 0.00 | 35 | 1008.6 |
| 20260504034611 | 15 | 41 | 25.7 | 30.6 | 0.00 | 0.00 | 0.00 | 35 | 1008.2 |
| 20260504033056 | 15 | 42 | 22.5 | 35.4 | 0.00 | 0.00 | 0.00 | 35 | 1007.9 |
| 20260504031551 | 15 | 40 | 22.5 | 33.8 | 0.00 | 0.00 | 0.00 | 34 | 1007.6 |
| 20260504030118 | 16 | 37 | 24.1 | 32.2 | 0.00 | 0.00 | 0.00 | 32 | 1007.1 |
| 20260504024555 | 16 | 42 | 16.1 | 22.5 | 0.00 | 0.00 | 0.00 | 28 | 1006.9 |
| 20260504023057 | 17 | 22 | 6.4 | 12.9 | 0.00 | 0.00 | 0.00 | 24 | 1006.7 |
| 20260504021553 | 18 | 18 | 12.9 | 17.7 | 0.00 | 0.00 | 0.00 | 22 | 1006.8 |
| 20260504020105 | 19 | 15 | 14.5 | 24.1 | 0.00 | 0.00 | 0.00 | 21 | 1006.8 |
| 20260504014548 | 20 | 11 | 17.7 | 27.4 | 0.00 | 0.00 | 0.00 | 20 | 1006.9 |
| 20260504013055 | 21 | 352 | 19.3 | 27.4 | 0.00 | 0.00 | 0.00 | 20 | 1006.9 |
| 20260504011553 | 21 | 352 | 22.5 | 30.6 | 0.00 | 0.00 | 0.00 | 20 | 1006.9 |
| 20260504010053 | 22 | 329 | 19.3 | 27.4 | 0.00 | 0.00 | 0.00 | 20 | 1007.0 |
| 20260504004558 | 22 | 345 | 20.9 | 30.6 | 0.00 | 0.00 | 0.00 | 19 | 1007.1 |
| 20260504003056 | 22 | 352 | 16.1 | 30.6 | 0.00 | 0.00 | 0.00 | 19 | 1007.2 |
| 20260504001606 | 22 | 330 | 20.9 | 25.7 | 0.00 | 0.00 | 0.00 | 19 | 1007.3 |
| 20260504000058 | 23 | 11 | 17.7 | 27.4 | 0.00 | 0.00 | 0.00 | 18 | 1007.4 |